LVKFQ SBFL-SBTV

Flight info

Callsign LVKFQ
Flight time 1h 55m
Altitude 37000
Route EGDED UN857 XUVUD
Aircraft CL60/M-SBDE1E2E3FGHIJ4J5J7M3RWXYZ/LB1V1D1

Departure

Time 2026-05-06 00:07
Airport Hercílio Luz International Airport (SBFL)

Arrival

Time 2026-05-06 02:03
Airport Terravista Airport (SBTV)
Time Latitude Longitude Altitude Speed Heading
2026-05-05 23:56 -27.67191 -48.54495 30 ft 0 kts 30°
2026-05-06 00:01 -27.67197 -48.54477 30 ft 5 kts 140°
2026-05-06 00:01 -27.67249 -48.54475 30 ft 5 kts 165°
2026-05-06 00:02 -27.67282 -48.54428 30 ft 10 kts 119°
2026-05-06 00:02 -27.67265 -48.54372 30 ft 10 kts 32°
2026-05-06 00:02 -27.67199 -48.54319 30 ft 10 kts 75°
2026-05-06 00:02 -27.67234 -48.54230 30 ft 15 kts 122°
2026-05-06 00:03 -27.67298 -48.54115 30 ft 19 kts 122°
2026-05-06 00:03 -27.67376 -48.53968 30 ft 23 kts 121°
2026-05-06 00:03 -27.67470 -48.53793 30 ft 27 kts 121°
2026-05-06 00:03 -27.67577 -48.53596 30 ft 22 kts 121°
2026-05-06 00:04 -27.67664 -48.53434 29 ft 26 kts 121°
2026-05-06 00:04 -27.67738 -48.53297 29 ft 15 kts 122°
2026-05-06 00:04 -27.67792 -48.53188 29 ft 15 kts 98°
2026-05-06 00:04 -27.67724 -48.53096 28 ft 16 kts 32°
2026-05-06 00:05 -27.67658 -48.53088 28 ft 0 kts 298°
2026-05-06 00:07 -27.67564 -48.53263 29 ft 68 kts 301°
2026-05-06 00:07 -27.67169 -48.53997 31 ft 143 kts 302°
2026-05-06 00:07 -27.66605 -48.55050 444 ft 165 kts 303°
2026-05-06 00:07 -27.65992 -48.56201 1157 ft 180 kts 302°
2026-05-06 00:08 -27.65299 -48.57502 1709 ft 208 kts 303°
2026-05-06 00:08 -27.64505 -48.58956 2330 ft 232 kts 307°
2026-05-06 00:08 -27.63239 -48.60107 3158 ft 242 kts 342°
2026-05-06 00:08 -27.61582 -48.60136 4176 ft 253 kts 19°
2026-05-06 00:09 -27.60071 -48.59126 5425 ft 260 kts 35°
2026-05-06 00:09 -27.58616 -48.57920 6630 ft 266 kts 34°
2026-05-06 00:09 -27.57143 -48.56707 7789 ft 271 kts 34°
2026-05-06 00:09 -27.55604 -48.55459 8927 ft 277 kts 34°
2026-05-06 00:10 -27.54048 -48.54211 10027 ft 282 kts 34°
2026-05-06 00:10 -27.52446 -48.52931 11071 ft 289 kts 34°
2026-05-06 00:10 -27.50806 -48.51622 12076 ft 295 kts 34°
2026-05-06 00:10 -27.49122 -48.50268 13040 ft 302 kts 37°
2026-05-06 00:11 -27.47659 -48.48548 13657 ft 322 kts 56°
2026-05-06 00:11 -27.46478 -48.46271 13982 ft 350 kts 61°
2026-05-06 00:11 -27.45271 -48.43847 14680 ft 362 kts 61°
2026-05-06 00:11 -27.44024 -48.41361 15483 ft 370 kts 61°
2026-05-06 00:12 -27.42754 -48.38829 16340 ft 375 kts 61°
2026-05-06 00:12 -27.41466 -48.36266 17168 ft 380 kts 61°
2026-05-06 00:12 -27.40170 -48.33690 17933 ft 386 kts 61°
2026-05-06 00:12 -27.38843 -48.31054 18727 ft 391 kts 60°
2026-05-06 00:13 -27.37491 -48.28372 19467 ft 397 kts 60°
2026-05-06 00:13 -27.36127 -48.25668 20186 ft 402 kts 60°
2026-05-06 00:13 -27.34737 -48.22915 20937 ft 406 kts 60°
2026-05-06 00:13 -27.33339 -48.20144 21597 ft 412 kts 60°
2026-05-06 00:14 -27.31932 -48.17350 22270 ft 416 kts 60°
2026-05-06 00:14 -27.30497 -48.14504 22927 ft 421 kts 60°
2026-05-06 00:14 -27.29042 -48.11620 23552 ft 427 kts 60°
2026-05-06 00:14 -27.27571 -48.08707 24185 ft 431 kts 60°
2026-05-06 00:15 -27.26102 -48.05800 24817 ft 435 kts 60°
2026-05-06 00:15 -27.24603 -48.02835 25415 ft 440 kts 60°
2026-05-06 00:15 -27.23071 -47.99808 25990 ft 445 kts 60°
2026-05-06 00:15 -27.21548 -47.96803 26513 ft 450 kts 60°
2026-05-06 00:16 -27.19994 -47.93736 27038 ft 455 kts 60°
2026-05-06 00:16 -27.18409 -47.90612 27527 ft 460 kts 60°
2026-05-06 00:16 -27.16842 -47.87523 28057 ft 463 kts 60°
2026-05-06 00:16 -27.15235 -47.84360 28528 ft 467 kts 60°
2026-05-06 00:17 -27.13625 -47.81193 28951 ft 472 kts 60°
2026-05-06 00:17 -27.11996 -47.77992 29415 ft 475 kts 61°
2026-05-06 00:17 -27.10354 -47.74771 29831 ft 479 kts 60°
2026-05-06 00:17 -27.08690 -47.71530 30246 ft 483 kts 60°
2026-05-06 00:18 -27.07010 -47.68265 30656 ft 486 kts 60°
2026-05-06 00:18 -27.05311 -47.64964 31047 ft 489 kts 60°
2026-05-06 00:18 -27.03594 -47.61631 31442 ft 492 kts 60°
2026-05-06 00:18 -27.01859 -47.58264 31831 ft 494 kts 60°
2026-05-06 00:19 -27.00112 -47.54880 32169 ft 497 kts 60°
2026-05-06 00:19 -26.98351 -47.51467 32504 ft 499 kts 60°
2026-05-06 00:19 -26.96606 -47.48091 32818 ft 502 kts 60°
2026-05-06 00:19 -26.94844 -47.44684 33106 ft 504 kts 60°
2026-05-06 00:20 -26.93096 -47.41305 33407 ft 506 kts 60°
2026-05-06 00:20 -26.91298 -47.37833 33658 ft 508 kts 60°
2026-05-06 00:20 -26.89480 -47.34415 33934 ft 509 kts 57°
2026-05-06 00:20 -26.87340 -47.31163 34256 ft 508 kts 49°
2026-05-06 00:21 -26.85105 -47.28401 34539 ft 508 kts 46°
2026-05-06 00:21 -26.82668 -47.25502 34827 ft 508 kts 46°
2026-05-06 00:21 -26.80229 -47.22597 35138 ft 507 kts 46°
2026-05-06 00:21 -26.77841 -47.19752 35454 ft 506 kts 46°
2026-05-06 00:22 -26.75407 -47.16855 35775 ft 505 kts 46°
2026-05-06 00:22 -26.72989 -47.13976 36051 ft 505 kts 46°
2026-05-06 00:22 -26.70583 -47.11119 36335 ft 504 kts 46°
2026-05-06 00:22 -26.68151 -47.08235 36608 ft 504 kts 46°
2026-05-06 00:23 -26.65745 -47.05385 36827 ft 504 kts 46°
2026-05-06 00:23 -26.63345 -47.02542 37052 ft 505 kts 46°
2026-05-06 00:23 -26.60924 -46.99677 37136 ft 508 kts 46°
2026-05-06 00:24 -26.56038 -46.93921 37136 ft 510 kts 46°
2026-05-06 00:24 -26.51126 -46.88149 37136 ft 507 kts 46°
2026-05-06 00:25 -26.46269 -46.82448 37137 ft 505 kts 46°
2026-05-06 00:25 -26.41422 -46.76767 37135 ft 505 kts 46°
2026-05-06 00:26 -26.36590 -46.71110 37138 ft 505 kts 46°
2026-05-06 00:26 -26.31734 -46.65432 37143 ft 505 kts 46°
2026-05-06 00:27 -26.26895 -46.59782 37137 ft 505 kts 46°
2026-05-06 00:27 -26.22039 -46.54118 37144 ft 505 kts 46°
2026-05-06 00:28 -26.17190 -46.48469 37149 ft 505 kts 46°
2026-05-06 00:28 -26.12321 -46.42805 37147 ft 505 kts 46°
2026-05-06 00:29 -26.07453 -46.37149 37150 ft 505 kts 46°
2026-05-06 00:29 -26.02631 -46.31554 37148 ft 504 kts 46°
2026-05-06 00:30 -25.97778 -46.25929 37152 ft 505 kts 46°
2026-05-06 00:30 -25.92924 -46.20311 37154 ft 505 kts 46°
2026-05-06 00:31 -25.88032 -46.14657 37153 ft 504 kts 46°
2026-05-06 00:31 -25.83177 -46.09051 37156 ft 504 kts 46°
2026-05-06 00:32 -25.78317 -46.03447 37153 ft 504 kts 46°
2026-05-06 00:32 -25.73455 -45.97848 37161 ft 505 kts 46°
2026-05-06 00:33 -25.68586 -45.92249 37159 ft 505 kts 46°
2026-05-06 00:33 -25.63691 -45.86626 37149 ft 504 kts 46°
2026-05-06 00:34 -25.58858 -45.81083 37152 ft 504 kts 46°
2026-05-06 00:34 -25.53970 -45.75485 37150 ft 504 kts 46°
2026-05-06 00:35 -25.49086 -45.69897 37155 ft 504 kts 46°
2026-05-06 00:35 -25.44193 -45.64306 37149 ft 504 kts 46°
2026-05-06 00:36 -25.39301 -45.58724 37155 ft 503 kts 46°
2026-05-06 00:36 -25.34446 -45.53189 37156 ft 503 kts 46°
2026-05-06 00:37 -25.29585 -45.47657 37153 ft 503 kts 46°
2026-05-06 00:37 -25.24698 -45.42100 37154 ft 503 kts 46°
2026-05-06 00:38 -25.19844 -45.36588 37152 ft 503 kts 46°
2026-05-06 00:38 -25.14965 -45.31054 37152 ft 503 kts 46°
2026-05-06 00:39 -25.10107 -45.25551 37154 ft 503 kts 46°
2026-05-06 00:39 -25.05208 -45.20008 37157 ft 502 kts 46°
2026-05-06 00:40 -25.00334 -45.14500 37147 ft 502 kts 46°
2026-05-06 00:40 -24.95444 -45.08981 37157 ft 502 kts 46°
2026-05-06 00:41 -24.90554 -45.03468 37151 ft 503 kts 46°
2026-05-06 00:41 -24.85627 -44.97920 37156 ft 502 kts 46°
2026-05-06 00:42 -24.80718 -44.92399 37156 ft 502 kts 46°
2026-05-06 00:42 -24.75822 -44.86900 37155 ft 502 kts 46°
2026-05-06 00:43 -24.70972 -44.81459 37162 ft 501 kts 46°
2026-05-06 00:43 -24.66074 -44.75970 37162 ft 501 kts 46°
2026-05-06 00:44 -24.61178 -44.70490 37162 ft 501 kts 46°
2026-05-06 00:44 -24.56321 -44.65060 37164 ft 500 kts 46°
2026-05-06 00:45 -24.51436 -44.59605 37160 ft 500 kts 46°
2026-05-06 00:45 -24.46528 -44.54187 37165 ft 499 kts 46°
2026-05-06 00:46 -24.41638 -44.48851 37163 ft 499 kts 45°
2026-05-06 00:46 -24.36704 -44.43471 37167 ft 498 kts 46°
2026-05-06 00:47 -24.31813 -44.38145 37172 ft 498 kts 45°
2026-05-06 00:47 -24.26865 -44.32763 37168 ft 497 kts 45°
2026-05-06 00:48 -24.21973 -44.27447 37170 ft 497 kts 45°
2026-05-06 00:48 -24.17046 -44.22100 37167 ft 496 kts 45°
2026-05-06 00:49 -24.12151 -44.16792 37175 ft 496 kts 45°
2026-05-06 00:49 -24.07226 -44.11459 37173 ft 495 kts 45°
2026-05-06 00:50 -24.02322 -44.06155 37171 ft 495 kts 45°
2026-05-06 00:50 -23.97428 -44.00867 37174 ft 495 kts 45°
2026-05-06 00:51 -23.92552 -43.95604 37176 ft 494 kts 45°
2026-05-06 00:51 -23.87639 -43.90308 37175 ft 494 kts 45°
2026-05-06 00:52 -23.82696 -43.84985 37175 ft 494 kts 45°
2026-05-06 00:52 -23.77800 -43.79718 37174 ft 494 kts 45°
2026-05-06 00:53 -23.72896 -43.74449 37175 ft 494 kts 45°
2026-05-06 00:53 -23.67993 -43.69188 37175 ft 495 kts 45°
2026-05-06 00:54 -23.63090 -43.63922 37176 ft 494 kts 46°
2026-05-06 00:54 -23.58355 -43.58569 37174 ft 494 kts 47°
2026-05-06 00:55 -23.53573 -43.53143 37174 ft 494 kts 47°
2026-05-06 00:55 -23.48811 -43.47745 37176 ft 494 kts 47°
2026-05-06 00:56 -23.44087 -43.42317 37176 ft 494 kts 47°
2026-05-06 00:56 -23.39380 -43.36903 37179 ft 494 kts 47°
2026-05-06 00:57 -23.34633 -43.31450 37175 ft 493 kts 47°
2026-05-06 00:57 -23.29896 -43.26034 37179 ft 493 kts 46°
2026-05-06 00:58 -23.25108 -43.20692 37175 ft 494 kts 46°
2026-05-06 00:58 -23.20289 -43.15325 37170 ft 493 kts 46°
2026-05-06 00:59 -23.15501 -43.09997 37174 ft 493 kts 46°
2026-05-06 00:59 -23.10727 -43.04690 37173 ft 493 kts 46°
2026-05-06 01:00 -23.05902 -42.99332 37173 ft 492 kts 46°
2026-05-06 01:00 -23.01060 -42.93961 37177 ft 492 kts 46°
2026-05-06 01:01 -22.96408 -42.88490 37174 ft 491 kts 54°
2026-05-06 01:01 -22.92620 -42.82262 37184 ft 493 kts 59°
2026-05-06 01:02 -22.88864 -42.75968 37184 ft 502 kts 58°
2026-05-06 01:02 -22.84833 -42.69666 37196 ft 511 kts 51°
2026-05-06 01:03 -22.79810 -42.64358 37197 ft 516 kts 38°
2026-05-06 01:03 -22.73871 -42.60364 37206 ft 516 kts 25°
2026-05-06 01:04 -22.67249 -42.57347 37200 ft 515 kts 21°
2026-05-06 01:04 -22.60615 -42.54401 37216 ft 514 kts 21°
2026-05-06 01:05 -22.53937 -42.51436 37212 ft 515 kts 21°
2026-05-06 01:05 -22.47328 -42.48504 37224 ft 514 kts 21°
2026-05-06 01:06 -22.40714 -42.45570 37251 ft 514 kts 21°
2026-05-06 01:06 -22.34045 -42.42616 37274 ft 515 kts 21°
2026-05-06 01:07 -22.27382 -42.39666 37304 ft 515 kts 21°
2026-05-06 01:07 -22.20748 -42.36732 37315 ft 516 kts 21°
2026-05-06 01:08 -22.14050 -42.33773 37293 ft 516 kts 21°
2026-05-06 01:08 -22.07358 -42.30819 37270 ft 516 kts 21°
2026-05-06 01:09 -22.00626 -42.27850 37252 ft 515 kts 21°
2026-05-06 01:09 -21.93987 -42.24925 37241 ft 516 kts 21°
2026-05-06 01:10 -21.87252 -42.21960 37249 ft 515 kts 21°
2026-05-06 01:10 -21.80742 -42.18626 37243 ft 516 kts 29°
2026-05-06 01:11 -21.74414 -42.14821 37236 ft 516 kts 28°
2026-05-06 01:11 -21.68093 -42.11033 37237 ft 515 kts 28°
2026-05-06 01:12 -21.61736 -42.07228 37239 ft 515 kts 28°
2026-05-06 01:12 -21.55430 -42.03459 37241 ft 514 kts 28°
2026-05-06 01:13 -21.49127 -41.99696 37252 ft 514 kts 28°
2026-05-06 01:13 -21.42844 -41.95951 37244 ft 514 kts 28°
2026-05-06 01:14 -21.33665 -41.90486 37242 ft 513 kts 28°
2026-05-06 01:14 -21.27334 -41.86721 37232 ft 512 kts 28°
2026-05-06 01:15 -21.21026 -41.82975 37234 ft 512 kts 28°
2026-05-06 01:15 -21.14767 -41.79261 37236 ft 512 kts 28°
2026-05-06 01:16 -21.08520 -41.75558 37248 ft 511 kts 28°
2026-05-06 01:16 -21.02245 -41.71842 37254 ft 511 kts 28°
2026-05-06 01:17 -20.95949 -41.68117 37265 ft 511 kts 28°
2026-05-06 01:17 -20.89690 -41.64418 37260 ft 511 kts 28°
2026-05-06 01:18 -20.83403 -41.60706 37258 ft 510 kts 28°
2026-05-06 01:18 -20.77106 -41.56992 37241 ft 510 kts 28°
2026-05-06 01:19 -20.70866 -41.53314 37238 ft 510 kts 28°
2026-05-06 01:19 -20.64649 -41.49654 37239 ft 510 kts 28°
2026-05-06 01:20 -20.58408 -41.45983 37241 ft 510 kts 28°
2026-05-06 01:20 -20.52173 -41.42319 37253 ft 510 kts 28°
2026-05-06 01:21 -20.45936 -41.38642 37263 ft 509 kts 28°
2026-05-06 01:21 -20.39726 -41.34967 37276 ft 509 kts 28°
2026-05-06 01:22 -20.33536 -41.31308 37288 ft 509 kts 28°
2026-05-06 01:22 -20.27343 -41.27650 37309 ft 509 kts 28°
2026-05-06 01:23 -20.21104 -41.23969 37308 ft 509 kts 28°
2026-05-06 01:23 -20.14910 -41.20317 37296 ft 509 kts 28°
2026-05-06 01:24 -20.08709 -41.16665 37280 ft 509 kts 28°
2026-05-06 01:24 -20.02487 -41.13003 37268 ft 508 kts 28°
2026-05-06 01:25 -19.96293 -41.09363 37267 ft 508 kts 28°
2026-05-06 01:25 -19.90133 -41.05745 37276 ft 507 kts 28°
2026-05-06 01:26 -19.83896 -41.02090 37296 ft 507 kts 28°
2026-05-06 01:26 -19.78722 -40.99075 37313 ft 507 kts 27°
2026-05-06 01:27 -19.74659 -40.96708 37311 ft 507 kts 27°
2026-05-06 01:27 -19.68400 -40.93065 37260 ft 508 kts 27°
2026-05-06 01:28 -19.62174 -40.89446 37236 ft 507 kts 27°
2026-05-06 01:28 -19.55921 -40.85815 37221 ft 507 kts 27°
2026-05-06 01:29 -19.49740 -40.82237 37202 ft 508 kts 27°
2026-05-06 01:29 -19.43525 -40.78644 37205 ft 508 kts 27°
2026-05-06 01:30 -19.37300 -40.75047 37200 ft 508 kts 27°
2026-05-06 01:30 -19.31093 -40.71464 37208 ft 508 kts 27°
2026-05-06 01:31 -19.24877 -40.67880 37209 ft 508 kts 27°
2026-05-06 01:31 -19.18631 -40.64280 37211 ft 507 kts 27°
2026-05-06 01:32 -19.12430 -40.60710 37210 ft 507 kts 27°
2026-05-06 01:32 -19.06209 -40.57132 37211 ft 507 kts 27°
2026-05-06 01:33 -18.99992 -40.53558 37204 ft 507 kts 27°
2026-05-06 01:33 -18.93738 -40.49966 37207 ft 508 kts 27°
2026-05-06 01:34 -18.87474 -40.46372 37209 ft 507 kts 27°
2026-05-06 01:34 -18.81270 -40.42815 37196 ft 507 kts 27°
2026-05-06 01:35 -18.75031 -40.39241 37192 ft 507 kts 27°
2026-05-06 01:35 -18.68820 -40.35686 37190 ft 507 kts 27°
2026-05-06 01:36 -18.62613 -40.32137 37185 ft 507 kts 26°
2026-05-06 01:36 -18.56404 -40.28589 37183 ft 507 kts 26°
2026-05-06 01:37 -18.50162 -40.25026 37177 ft 507 kts 26°
2026-05-06 01:37 -18.43931 -40.21471 37179 ft 507 kts 26°
2026-05-06 01:38 -18.37740 -40.17942 37179 ft 507 kts 26°
2026-05-06 01:38 -18.31472 -40.14373 37165 ft 507 kts 26°
2026-05-06 01:39 -18.25252 -40.10833 37167 ft 507 kts 26°
2026-05-06 01:39 -18.19044 -40.07304 37161 ft 507 kts 26°
2026-05-06 01:40 -18.12820 -40.03768 37112 ft 508 kts 26°
2026-05-06 01:40 -18.09682 -40.01988 36578 ft 514 kts 26°
2026-05-06 01:40 -18.06530 -40.00211 35955 ft 512 kts 25°
2026-05-06 01:41 -18.03295 -39.98673 35339 ft 508 kts 19°
2026-05-06 01:41 -17.99931 -39.97522 34707 ft 505 kts 12°
2026-05-06 01:41 -17.96496 -39.96773 34042 ft 503 kts
2026-05-06 01:41 -17.92967 -39.96413 33361 ft 501 kts
2026-05-06 01:42 -17.89500 -39.96214 32710 ft 498 kts
2026-05-06 01:42 -17.86063 -39.96016 32051 ft 492 kts
2026-05-06 01:42 -17.82656 -39.95818 31399 ft 487 kts
2026-05-06 01:42 -17.79284 -39.95622 30753 ft 481 kts
2026-05-06 01:43 -17.75962 -39.95430 30120 ft 475 kts
2026-05-06 01:43 -17.72668 -39.95239 29490 ft 469 kts
2026-05-06 01:43 -17.69397 -39.95050 28862 ft 464 kts
2026-05-06 01:43 -17.66180 -39.94864 28256 ft 458 kts
2026-05-06 01:44 -17.63021 -39.94682 27654 ft 455 kts
2026-05-06 01:44 -17.59848 -39.94499 27041 ft 451 kts
2026-05-06 01:44 -17.56784 -39.94322 26462 ft 447 kts
2026-05-06 01:44 -17.54563 -39.94194 26051 ft 445 kts
2026-05-06 01:45 -17.51516 -39.94019 25458 ft 442 kts
2026-05-06 01:45 -17.49675 -39.93914 25116 ft 440 kts
2026-05-06 01:45 -17.47267 -39.93776 24653 ft 438 kts
2026-05-06 01:45 -17.45499 -39.93663 24318 ft 436 kts
2026-05-06 01:46 -17.42490 -39.92995 23760 ft 436 kts 19°
2026-05-06 01:46 -17.39908 -39.91728 23188 ft 435 kts 26°
2026-05-06 01:46 -17.37675 -39.90508 22716 ft 433 kts 26°
2026-05-06 01:46 -17.35681 -39.89424 22309 ft 431 kts 26°
2026-05-06 01:47 -17.34006 -39.88515 21939 ft 429 kts 27°
2026-05-06 01:47 -17.32655 -39.87785 21632 ft 427 kts 27°
2026-05-06 01:47 -17.30048 -39.86373 21057 ft 421 kts 27°
2026-05-06 01:47 -17.27444 -39.84962 20507 ft 416 kts 27°
2026-05-06 01:48 -17.24888 -39.83577 19957 ft 412 kts 27°
2026-05-06 01:48 -17.22363 -39.82210 19415 ft 408 kts 27°
2026-05-06 01:48 -17.19842 -39.80846 18876 ft 403 kts 27°
2026-05-06 01:48 -17.17381 -39.79515 18357 ft 398 kts 28°
2026-05-06 01:49 -17.14918 -39.78183 17823 ft 394 kts 28°
2026-05-06 01:49 -17.12510 -39.76882 17298 ft 389 kts 28°
2026-05-06 01:50 -17.05238 -39.72955 15737 ft 377 kts 28°
2026-05-06 01:50 -17.02919 -39.71695 15235 ft 374 kts 30°
2026-05-06 01:50 -17.00671 -39.70327 14754 ft 369 kts 32°
2026-05-06 01:50 -16.98499 -39.68957 14293 ft 360 kts 33°
2026-05-06 01:51 -16.96375 -39.67622 13869 ft 349 kts 33°
2026-05-06 01:51 -16.94335 -39.66339 13436 ft 341 kts 33°
2026-05-06 01:51 -16.92312 -39.65067 13011 ft 333 kts 33°
2026-05-06 01:51 -16.90353 -39.63836 12588 ft 327 kts 33°
2026-05-06 01:52 -16.88418 -39.62622 12192 ft 319 kts 33°
2026-05-06 01:52 -16.86524 -39.61435 11801 ft 313 kts 33°
2026-05-06 01:52 -16.84663 -39.60268 11402 ft 308 kts 33°
2026-05-06 01:52 -16.82857 -39.59135 11021 ft 303 kts 33°
2026-05-06 01:53 -16.81052 -39.58005 10637 ft 299 kts 33°
2026-05-06 01:53 -16.79266 -39.56885 10090 ft 301 kts 34°
2026-05-06 01:53 -16.77498 -39.55777 9745 ft 294 kts 34°
2026-05-06 01:53 -16.75754 -39.54685 9374 ft 289 kts 34°
2026-05-06 01:54 -16.74083 -39.53541 9018 ft 281 kts 44°
2026-05-06 01:54 -16.72849 -39.51998 8661 ft 273 kts 57°
2026-05-06 01:54 -16.71760 -39.50405 8327 ft 268 kts 57°
2026-05-06 01:54 -16.70681 -39.48843 7990 ft 264 kts 57°
2026-05-06 01:55 -16.69625 -39.47315 7651 ft 259 kts 57°
2026-05-06 01:55 -16.68575 -39.45795 7347 ft 254 kts 57°
2026-05-06 01:55 -16.67554 -39.44318 7023 ft 251 kts 57°
2026-05-06 01:55 -16.66535 -39.42844 6702 ft 247 kts 57°
2026-05-06 01:56 -16.65541 -39.41408 6396 ft 243 kts 57°
2026-05-06 01:56 -16.64547 -39.39972 6088 ft 240 kts 57°
2026-05-06 01:56 -16.63585 -39.38581 5793 ft 236 kts 57°
2026-05-06 01:56 -16.62636 -39.37210 5498 ft 233 kts 57°
2026-05-06 01:57 -16.61690 -39.35844 5208 ft 229 kts 58°
2026-05-06 01:57 -16.60761 -39.34503 4914 ft 226 kts 57°
2026-05-06 01:57 -16.59847 -39.33183 4639 ft 223 kts 57°
2026-05-06 01:57 -16.58939 -39.31873 4358 ft 220 kts 57°
2026-05-06 01:58 -16.58048 -39.30586 4084 ft 218 kts 57°
2026-05-06 01:58 -16.57086 -39.29380 3809 ft 217 kts 50°
2026-05-06 01:58 -16.56050 -39.28262 3480 ft 211 kts 49°
2026-05-06 01:58 -16.55051 -39.27183 3090 ft 206 kts 49°
2026-05-06 01:59 -16.54066 -39.26117 2777 ft 198 kts 49°
2026-05-06 01:59 -16.53131 -39.25105 2464 ft 193 kts 50°
2026-05-06 01:59 -16.52219 -39.24118 2178 ft 184 kts 50°
2026-05-06 01:59 -16.51356 -39.23162 1893 ft 173 kts 54°
2026-05-06 02:00 -16.50940 -39.22070 1784 ft 164 kts 84°
2026-05-06 02:00 -16.50818 -39.20888 1762 ft 156 kts 86°
2026-05-06 02:00 -16.50710 -39.19861 1806 ft 137 kts 87°
2026-05-06 02:00 -16.50608 -39.18876 1730 ft 135 kts 87°
2026-05-06 02:01 -16.50512 -39.17908 1549 ft 130 kts 89°
2026-05-06 02:01 -16.50705 -39.17012 1393 ft 128 kts 116°
2026-05-06 02:01 -16.51095 -39.16181 1231 ft 128 kts 117°
2026-05-06 02:01 -16.51471 -39.15329 1047 ft 130 kts 115°
2026-05-06 02:02 -16.51825 -39.14500 885 ft 130 kts 115°
2026-05-06 02:02 -16.52198 -39.13625 701 ft 132 kts 115°
2026-05-06 02:02 -16.52622 -39.12791 535 ft 132 kts 123°
2026-05-06 02:02 -16.53171 -39.12009 372 ft 132 kts 132°
2026-05-06 02:03 -16.53760 -39.11282 207 ft 132 kts 129°
2026-05-06 02:03 -16.54263 -39.10641 178 ft 72 kts 129°
2026-05-06 02:03 -16.54463 -39.10381 178 ft 29 kts 129°
2026-05-06 02:03 -16.54521 -39.10294 178 ft 9 kts 99°
2026-05-06 02:04 -16.54547 -39.10262 178 ft 6 kts 224°
2026-05-06 02:04 -16.54524 -39.10305 178 ft 10 kts 317°
2026-05-06 02:04 -16.54465 -39.10380 178 ft 15 kts 308°
2026-05-06 02:04 -16.54386 -39.10482 178 ft 20 kts 309°
2026-05-06 02:05 -16.54290 -39.10606 178 ft 24 kts 308°
2026-05-06 02:05 -16.54175 -39.10754 178 ft 27 kts 309°
2026-05-06 02:05 -16.54048 -39.10917 178 ft 30 kts 308°
2026-05-06 02:05 -16.53925 -39.11077 178 ft 26 kts 309°
2026-05-06 02:06 -16.53820 -39.11211 178 ft 22 kts 309°
2026-05-06 02:06 -16.53744 -39.11309 178 ft 14 kts 310°
2026-05-06 02:06 -16.53692 -39.11325 178 ft 9 kts 40°
2026-05-06 02:06 -16.53662 -39.11304 178 ft 3 kts 35°
2026-05-06 02:07 -16.53655 -39.11292 178 ft 0 kts 77°
2026-05-06 02:07 -16.53656 -39.11272 178 ft 4 kts 114°
2026-05-06 02:08 -16.53666 -39.11254 178 ft 2 kts 88°
2026-05-06 02:08 -16.53652 -39.11241 178 ft 0 kts 330°
2026-05-06 02:08 -16.53650 -39.11246 178 ft 0 kts 284°